Location: Sungai Laei
(2.6000°N, 113.7167°E)
Time: 12:52:16
(UTC+00:00)

CZ-2C R/B - Pass Details

Date: 22 May 2022
Orbit: 497 x 558 km, 97.8° (Epoch: 06 July)

Event Time Altitude Azimuth Distance (km) Brightness Sun altitude
Rises 21:17:03 0° 343° (NNW) 2,570 6.3 -14.2°
Reaches altitude 10° 21:19:43 10° 321° (NW) 1,695 5.1 -13.6°
Enters shadow 21:22:00 16° 282° (WNW) 1,364 4.3 -13.0°
